Regional Weather Roundup
Issued by NWS Jackson, KY

Home | Current Version | Previous Version | Graphics & Text | Print | Product List | Glossary On
Versions: 1 2 3 4 5 6 7 8 9 10 11 12 13 14 15 16 17 18 19 20 21 22 23 24 25 26 27 28 29 30 31 32 33 34 35 36 37 38 39 40 41 42 43 44 45 46 47 48 49 50
000
ASUS43 KJKL 301119
RWRJKL

EAST KENTUCKY HOURLY WEATHER ROUNDUP
NATIONAL WEATHER SERVICE JACKSON KY
600 AM EST FRI JAN 30 2015

NOTE: "FAIR" INDICATES FEW OR NO CLOUDS BELOW 12,000 FEET WITH
NO SIGNIFICANT WEATHER AND/OR OBSTRUCTIONS TO VISIBILITY.

* THESE REPORTS ARE NOT UNDER NWS QUALITY CONTROL AND MAY NOT
  REPORT WEATHER SUCH AS PRECIPITATION AND FOG.

KYZ079-080-083-085-087-088-110-112-115-119-120-301200
...EASTERN KENTUCKY...

CITY           SKY/WX    TMP DP  RH WIND       PRES   REMARKS
JACKSON        FLURRIES  31  26  82 W8        30.25R WCI  23
LONDON         CLOUDY    33  25  72 NW8       30.28R WCI  26
SOMERSET*      CLOUDY    32  27  80 NW8       30.33R WCI  25
MONTICELLO*    MOCLDY    34  30  85 NW10      30.35R WCI  26
MIDDLESBORO*   CLOUDY    34  26  73 N5        30.28S WCI  30
HARLAN APT*    CLOUDY    32  27  80 NW9       30.24S WCI  24
HAZARD APT*    LGT RAIN  32  28  86 W8        30.25  WCI  25
BLACK MTN*       N/A     21  21 100 N8          N/A  WCI  12
PIKEVILLE APT* MIX PCPN  30  27  86 NW12      30.22R WCI  21
BIG SANDY*     MIX PCPN  32  27  81 NW5       30.23R WCI  27
MOREHEAD APT*  CLOUDY    32  28  86 VRB5G13   30.28R WCI  27
ASHLAND*       PTCLDY   N/A N/A N/A NW8         N/A
$$

KYZ035-036-041-042-044-050-067-078-099-301200
...CENTRAL KENTUCKY...

CITY           SKY/WX    TMP DP  RH WIND       PRES   REMARKS
MT STERLING*   CLOUDY    32  28  86 NW8       30.29R WCI  25
FLEMING/MASON* CLOUDY    32  27  80 W13       30.27R WCI  22
DANVILLE*      CLOUDY    32  30  93 NW8       30.32R WCI  25
RICHMOND*      CLOUDY    32  28  86 W10       30.30R WCI  24
LEXINGTON      CLOUDY    32  28  85 W7        30.30R WCI  26
FRANKFORT      CLOUDY    34  23  64 NW7G17    30.29R WCI  28
$$

KYZ091>093-OHZ055-061-077-WVZ005-015-034-035-042-301200
...SOUTHERN OHIO/WEST VIRGINIA...

CITY           SKY/WX    TMP DP  RH WIND       PRES   REMARKS
COVINGTON      CLOUDY    33  24  69 NW15G25   30.27R WCI  23
COLUMBUS       CLOUDY    27  19  72 NW18G25   30.21R WCI  14
DAYTON         CLOUDY    27  16  63 N21G35    30.28R WCI  13
WILMINGTON     CLOUDY    29  22  75 NW15G25   30.23R WCI  18
HUNTINGTON     FLURRIES  32  29  88 W7        30.21S WCI  26
CHARLESTON     FLURRIES  32  26  78 W9        30.18R WCI  24
PINEVILLE*     FLURRIES  33  30  90 MISG      30.18R
BECKLEY        LGT SNOW  28  23  81 NW14      30.08R WCI  17
BLUEFIELD      FLURRIES  29  23  78 NW18G28   30.05R WCI  16
$$

VAZ002-007-008-TNZ017-027-036-066-071-301200
...SOUTHWEST VIRGINIA/EAST TENNESSEE...

CITY           SKY/WX    TMP DP  RH WIND       PRES   REMARKS
WISE*          FLURRIES  28  23  80 NW13G22   30.16R WCI  18
JONESVILLE*    LGT RAIN  32  25  74 NW12G21   30.26R WCI  23
ABINGDON*      CLOUDY    33  24  69 N12G25    30.15R WCI  24
BRISTOL        CLOUDY    35  26  69 NW8       30.19R WCI  29
KNOXVILLE      CLOUDY    37  26  64 NW8       30.29R WCI  31
OAK RIDGE      CLOUDY    38  25  59 N7        30.31R WCI  33
CROSSVILLE     CLOUDY    33  27  78 NW7G17    30.27R WCI  27
NASHVILLE      CLOUDY    36  26  67 NW13G22   30.41R WCI  27
$$

...KEY TO REMARKS...
VSB - VISIBILITY IN MILES
WCI - WIND CHILL INDEX
HX  - HEAT INDEX

$$


USA.gov is the U.S. government's official web portal to all federal, state and local government web resources and services.